Tracking 19489 objects as of 22-Jan-2019
HD Live streaming from Space Station
objects crossing your sky now

INSAT 4A

Track INSAT 4A now!
INSAT 4A is classified as:


NORAD ID: 28911
Int'l Code: 2005-049A
Perigee: 35,766.9 km
Apogee: 35,820.8 km
Inclination: 0.1 °
Period: 1,436.1 minutes
Semi major axis: 42164 km
RCS: 12.5892 m2 (large)
Launch date: December 21, 2005
Source: India (IND)
Launch site: FRENCH GUIANA (FRGUI)
aabbcc
Your satellite tracking list
Your tracking list is empty




NASA's NSSDC Master Catalog

Two Line Element Set (TLE):
1 28911U 05049A   19022.43174709 -.00000173  00000-0  00000+0 0  9999
2 28911   0.0744 270.9722 0006394  19.7720  69.1635  1.00271386 47992
Source of the keplerian elements: AFSPC